Date,TemperatureHighF,TemperatureAvgF,TemperatureLowF,DewpointHighF,DewpointAvgF,DewpointLowF,HumidityHigh,HumidityAvg,HumidityLow,PressureMaxIn,PressureMinIn,WindSpeedMaxMPH,WindSpeedAvgMPH,GustSpeedMaxMPH,PrecipitationSumIn
2013-1-1,25.2,17.1,10.2,4.7,-1.6,-5.9,52,44,32,30.10,30.02,8,2,8,0.00
2013-1-2,29.3,21.0,9.9,8.4,2.2,-5.9,53,44,33,30.09,29.96,6,1,6,0.00
2013-1-3,31.5,25.8,17.8,18.1,13.2,6.2,66,58,52,30.15,29.94,7,1,7,0.00
2013-1-4,35.1,24.7,14.0,15.8,10.4,1.9,63,55,44,30.13,29.99,9,2,9,0.00
2013-1-5,39.9,30.7,19.8,29.9,20.9,11.2,82,68,47,30.14,29.82,8,2,8,0.09
2013-1-6,36.0,29.8,21.6,29.6,18.6,11.9,79,63,45,30.23,29.79,9,2,9,0.00
2013-1-7,40.1,29.2,19.0,19.8,15.7,10.7,71,58,40,30.22,29.97,8,2,8,0.00
2013-1-8,42.8,34.3,27.5,23.8,21.2,18.1,70,59,45,30.03,29.89,10,2,10,0.00
2013-1-9,47.7,38.3,27.7,27.1,19.7,11.9,66,48,30,30.40,29.87,8,2,8,0.00
2013-1-10,42.1,33.9,23.7,33.8,22.4,13.5,84,63,46,30.43,29.79,6,2,6,0.44
2013-1-11,51.4,48.0,38.5,50.1,45.6,33.8,95,91,81,29.79,29.54,9,2,9,0.30
2013-1-12,51.3,43.6,30.6,44.8,31.1,19.4,80,62,45,29.89,29.59,9,2,9,0.00
2013-1-13,31.3,25.2,15.6,23.3,15.1,2.3,73,65,54,30.10,29.77,6,2,6,0.00
2013-1-14,28.0,19.2,12.4,7.7,3.8,0.0,59,51,39,30.31,30.10,6,1,6,0.00
2013-1-15,32.7,22.2,12.9,14.2,7.0,3.0,65,53,36,30.33,29.99,4,0,4,0.00
2013-1-16,37.2,27.9,16.7,21.3,13.3,6.4,68,55,36,29.99,29.66,10,2,10,0.03
2013-1-17,34.0,26.3,17.6,21.9,5.8,-0.8,65,43,26,30.30,29.93,9,2,9,0.00
2013-1-18,43.5,31.5,15.8,22.2,15.1,2.7,58,51,40,30.32,29.77,13,3,13,0.00
2013-1-19,46.0,39.8,25.5,28.8,22.7,1.0,59,50,33,29.80,29.58,16,3,16,0.00
2013-1-20,25.5,19.6,13.1,1.9,-4.0,-8.8,41,35,30,30.17,29.77,12,2,12,0.00
2013-1-21,18.3,10.2,2.5,-3.3,-11.4,-19.6,47,36,31,30.13,29.98,13,3,13,0.00
2013-1-22,14.9,6.5,-3.8,-9.9,-16.1,-22.1,41,34,30,30.23,30.13,8,2,8,0.00
2013-1-23,20.7,14.9,7.7,6.3,-3.1,-14.9,58,45,34,30.19,29.95,14,2,14,0.00
2013-1-24,23.0,15.2,5.2,3.8,-4.9,-12.6,47,40,34,30.49,30.19,13,3,13,0.00
2013-1-25,28.2,22.4,17.2,12.6,6.4,-3.2,61,50,35,30.26,29.84,7,2,7,0.00
2013-1-26,34.7,21.5,10.0,10.1,2.2,-2.9,56,44,29,30.28,30.05,5,1,5,0.03
2013-1-27,35.4,29.2,23.0,32.2,18.0,9.2,88,64,48,30.26,29.79,7,2,7,0.22
2013-1-28,46.6,41.5,35.4,45.2,39.3,32.2,96,92,86,29.87,29.67,6,2,6,0.14
2013-1-29,61.2,53.5,38.5,60.3,52.7,37.4,99,97,95,29.72,29.30,11,2,11,1.19
2013-1-30,42.4,33.6,20.8,41.7,30.8,9.1,99,90,60,29.48,29.08,13,4,13,0.25
2013-1-31,30.6,16.2,5.9,10.9,0.7,-8.0,65,50,36,30.00,29.48,12,3,12,0.00